Theta_e
324 325 326 323 325 323 322 322 324 323 322 324 325 324 322 321 321 321 322 323 322 322 321 322 321 319 318 317 317 317 318 318 321 325 329 332 334 334 334 332 330 330 331 333
325 328 319 319 320 323 324 325 324 322 322 325 324 323 321 321 322 322 322 322 322 322 321 319 318 315 315 315 315 316 317 318 319 322 327 330 331 333 333 331 330 329 329 330
323 320 321 323 323 324 324 323 322 322 322 324 325 325 322 321 322 321 321 322 321 319 319 318 315 314 313 313 313 315 318 317 318 321 326 328 329 330 331 332 332 331 329 328
320 318 319 321 323 322 325 322 322 323 324 327 320 322 320 319 319 318 319 319 318 318 317 314 313 312 310 310 312 314 316 320 323 323 326 327 329 329 330 330 330 330 330 329
319 318 320 321 321 320 321 320 324 324 325 324 323 323 319 318 317 317 317 317 317 316 314 312 310 308 307 307 308 311 312 312 314 322 326 328 328 329 329 328 328 328 329 329
316 318 318 318 317 319 319 321 322 321 322 325 320 320 318 318 318 318 317 316 314 313 312 309 307 306 305 304 305 306 307 307 306 308 312 317 319 319 319 319 319 319 320 320
318 318 319 318 318 319 320 321 323 323 325 322 316 318 318 317 318 317 318 317 312 311 310 308 306 304 302 302 302 302 302 302 303 302 303 305 305 305 304 306 306 306 306 304
322 322 319 319 318 319 322 321 317 316 321 319 318 320 318 317 317 317 315 315 311 310 308 305 303 301 300 299 299 299 299 299 299 299 299 299 300 299 299 298 299 298 298 298
320 320 316 318 318 318 321 322 318 320 321 321 318 319 318 318 315 314 313 312 312 310 306 304 301 299 297 296 296 296 296 296 295 296 296 295 294 294 294 293 293 294 293 294
314 319 314 316 318 318 318 318 322 321 324 323 317 315 316 320 318 315 313 312 311 308 304 302 300 297 295 294 294 294 294 294 293 293 293 292 290 290 290 290 290 290 290 290
313 314 316 317 319 319 319 320 320 320 321 319 319 316 315 315 315 315 314 312 310 306 304 301 299 296 294 293 292 292 292 293 291 290 291 288 288 288 288 287 287 287 288 288
314 313 316 316 314 315 318 318 320 322 324 322 321 321 314 314 314 316 314 311 308 306 303 300 298 297 293 292 291 290 290 291 288 288 288 286 286 286 286 285 285 285 286 286
315 315 317 314 315 315 317 317 319 319 319 320 320 318 313 314 315 314 314 310 307 304 301 299 297 297 294 291 290 288 288 288 286 286 285 285 284 284 284 283 283 283 284 284
314 314 314 316 313 313 315 315 317 318 320 319 319 317 314 315 315 313 311 309 306 303 300 298 297 296 294 290 289 287 286 287 284 284 283 283 282 282 282 282 282 282 282 282
313 316 314 314 312 311 311 314 315 317 318 319 317 318 316 315 315 314 312 309 306 303 300 298 296 295 293 289 287 285 284 283 283 283 282 281 281 281 280 280 280 280 280 281
313 315 314 314 314 313 314 312 312 314 316 317 317 316 314 314 314 314 314 311 307 304 301 298 296 294 291 288 285 284 283 282 282 281 280 280 280 280 279 279 279 279 279 280
313 315 315 316 314 315 315 314 312 312 314 313 315 314 313 313 313 312 313 312 308 305 302 299 297 293 289 285 283 283 282 281 281 280 279 278 278 278 278 278 278 278 279 279
313 313 314 314 312 315 312 311 312 312 311 312 313 312 312 312 312 313 313 313 309 305 302 299 296 291 285 282 281 281 280 280 279 278 278 277 277 277 277 277 277 277 278 278
309 312 313 314 314 311 311 311 312 313 313 311 311 311 311 311 311 311 311 311 309 305 302 298 291 285 281 280 279 280 279 278 278 277 277 276 276 276 276 276 276 276 277 277
306 305 311 314 315 316 310 309 310 310 313 311 311 311 311 310 313 312 310 307 308 305 297 290 285 281 280 278 279 279 279 278 277 276 275 275 274 275 275 275 275 275 276 276
308 308 311 311 311 311 310 309 309 313 311 309 310 310 310 310 311 308 302 301 299 292 287 284 281 279 278 277 278 278 277 276 274 273 273 273 273 274 274 274 274 274 275 275
309 310 310 310 310 311 307 308 310 310 309 305 306 309 309 309 300 300 297 292 288 285 282 280 278 277 276 277 278 276 275 273 272 272 272 272 272 272 272 272 273 273 274 275
306 307 308 310 310 307 305 305 304 299 299 302 301 304 304 302 297 295 292 288 285 282 279 278 276 275 275 275 276 275 272 271 271 271 271 271 271 271 271 272 272 273 273 274
305 304 306 306 306 306 304 303 300 297 296 296 294 294 299 297 293 292 289 286 282 279 278 276 275 274 273 272 273 272 269 270 270 270 270 270 270 270 270 271 271 272 271 272
305 305 305 306 305 303 300 297 299 296 291 289 289 291 294 294 291 289 285 283 281 277 276 274 274 273 272 270 268 267 268 268 268 268 268 269 269 269 269 269 269 269 270 270
303 305 305 306 303 301 297 288 290 290 288 287 286 285 286 288 288 285 281 280 277 276 274 274 273 271 270 268 266 266 266 266 267 268 268 267 268 268 268 268 268 268 267 268
Wind_Speed
14 11 16 19 19 15 17 13 17 13 11 5 15 18 19 17 18 18 17 17 18 20 22 21 16 8 12 15 16 17 18 18 17 17 19 19 20 21 21 22 24 24 22 21
11 17 19 18 18 19 18 17 15 11 3 4 15 21 20 20 19 19 19 19 20 19 16 13 9 11 12 14 14 15 15 16 16 17 18 18 17 18 18 20 24 26 25 23
22 3 19 14 16 18 20 20 16 15 11 13 16 24 23 24 24 21 20 20 18 15 13 8 7 7 9 11 13 14 14 13 13 13 14 15 15 14 11 13 14 15 15 18
18 21 11 19 18 16 19 16 15 13 11 10 5 8 13 7 10 13 15 14 15 12 2 2 4 5 8 10 10 11 11 9 7 8 12 14 14 13 11 9 8 7 8 12
12 17 19 18 20 18 13 9 9 11 13 15 18 11 10 11 11 10 9 11 11 3 1 2 4 5 8 10 11 11 11 13 12 7 1 7 10 5 2 2 2 2 2 3
20 1 13 22 8 17 7 5 4 5 8 12 17 14 15 16 18 18 3 1 4 3 3 4 4 4 7 9 10 12 13 15 17 18 17 13 12 11 11 10 10 10 9 7
16 14 6 5 18 13 17 12 5 6 7 10 4 12 22 1 1 4 5 2 5 5 4 4 3 5 7 9 11 11 13 16 16 19 20 19 18 17 16 13 12 11 11 11
11 8 17 12 16 10 21 17 7 8 9 9 13 11 12 9 12 4 3 5 8 7 6 5 4 4 6 7 9 11 12 14 15 16 17 17 15 14 14 14 12 12 11 12
13 12 5 16 13 14 14 17 17 13 1 5 10 9 11 7 9 8 8 7 8 7 6 6 6 5 5 7 9 10 10 12 14 14 15 16 15 15 14 13 12 11 12 13
6 4 9 11 9 14 12 8 9 4 7 12 14 18 13 15 16 11 11 12 10 8 8 7 7 6 5 6 7 9 10 11 12 13 13 14 14 14 13 13 15 14 14 15
8 6 5 7 15 17 12 10 8 7 9 7 13 14 12 10 13 14 14 12 11 10 10 9 9 8 6 5 6 7 9 9 11 11 12 13 13 13 13 14 14 14 14 15
20 7 9 15 5 17 18 21 18 7 9 5 5 12 4 3 6 9 11 12 12 13 12 11 11 10 8 6 5 6 7 8 9 10 11 12 12 13 13 14 14 14 14 15
15 7 5 6 7 12 14 20 22 19 4 14 12 16 4 7 8 8 10 12 13 14 14 12 13 12 10 8 5 6 6 7 9 8 10 11 12 12 13 14 13 13 13 14
14 13 15 17 18 11 14 22 22 20 13 20 19 26 23 13 13 11 12 14 15 16 15 13 12 13 12 8 7 5 6 6 6 8 9 10 11 12 11 12 13 13 13 13
9 8 21 23 21 20 16 22 23 23 25 18 23 18 27 24 19 15 17 15 17 17 17 16 14 13 13 10 7 6 5 5 5 6 8 8 9 9 10 11 11 12 12 12
16 8 14 17 21 21 24 20 16 25 27 24 27 27 27 20 18 16 15 16 18 18 19 18 16 17 16 13 10 7 6 5 5 6 7 7 9 9 10 10 10 11 11 12
17 9 8 16 15 17 19 26 26 21 22 24 23 29 26 25 23 16 13 18 21 21 20 18 17 19 17 14 11 9 7 6 7 5 7 8 8 8 9 9 9 10 11 10
12 19 9 11 11 18 16 18 23 29 28 26 26 27 28 22 17 14 15 19 20 19 19 18 19 20 17 14 12 11 9 7 8 6 9 6 7 8 8 8 8 10 9 9
4 2 7 8 15 21 6 12 22 24 29 27 29 30 27 23 16 19 18 17 19 19 18 20 22 20 17 15 13 12 10 8 7 7 6 5 6 6 7 7 8 8 8 8
18 11 7 6 6 7 13 24 11 14 15 31 22 26 27 24 12 22 9 11 12 18 22 24 24 20 17 14 14 13 13 11 8 5 5 5 6 6 7 5 6 6 6 7
10 13 17 16 10 9 10 6 11 12 12 7 17 24 26 17 22 9 7 5 14 20 23 23 22 20 17 17 15 11 10 9 7 5 5 5 6 6 3 3 4 5 6 5
12 8 10 10 11 17 4 6 15 10 7 5 3 8 11 13 3 7 12 13 15 17 23 22 22 18 16 16 16 13 12 8 7 6 6 6 5 4 1 3 3 2 3 4
14 14 11 9 6 2 4 5 10 9 12 7 5 5 7 7 9 13 13 15 13 20 20 18 19 19 13 14 14 15 12 9 8 7 6 5 4 3 2 2 2 2 4 7
8 13 11 15 15 17 14 9 10 9 11 9 8 8 5 6 11 13 13 13 14 18 18 20 20 17 15 12 12 12 11 9 9 8 6 5 4 3 2 3 3 4 6 7
10 7 10 11 13 13 12 10 10 7 7 10 8 6 7 7 11 12 12 12 13 18 18 20 18 18 17 14 12 11 11 10 9 8 6 5 4 3 3 3 3 4 4 5
7 8 6 7 8 5 2 7 7 5 6 8 6 3 1 7 9 8 10 14 16 16 19 17 17 18 17 15 12 11 10 10 10 7 6 5 4 3 3 3 2 1 2 4
Wind_Direction
202 210 217 218 221 229 255 255 246 246 241 257 257 262 264 262 264 261 260 261 261 264 274 283 288 315 315 300 297 290 286 278 264 244 234 233 233 234 236 239 241 239 234 237
198 223 224 226 230 232 237 245 244 259 248 270 270 268 268 264 256 255 256 260 263 267 273 287 346 331 317 313 313 305 292 280 267 253 242 236 237 241 239 246 245 247 248 237
216 191 219 220 218 223 229 234 240 248 259 233 271 275 255 251 246 246 249 255 262 271 284 301 327 326 334 337 336 327 315 294 273 256 241 234 235 243 244 235 236 248 252 246
229 232 224 217 222 221 236 227 243 259 262 255 163 288 297 271 253 238 234 248 259 260 15 2 345 358 4 2 357 356 354 348 318 264 236 232 229 235 241 237 231 236 243 248
205 211 208 222 215 216 247 248 219 239 251 269 253 268 278 241 249 240 230 249 242 81 70 84 48 33 23 20 21 24 28 28 19 28 300 243 235 274 336 350 275 294 264 260
221 109 241 224 210 228 220 169 193 245 259 254 246 239 262 248 235 237 220 158 101 129 123 100 74 52 39 33 38 41 45 45 44 50 54 62 67 65 66 56 63 64 65 61
214 223 230 218 208 208 201 189 197 217 212 246 206 217 249 104 25 181 234 275 157 171 169 131 92 60 46 41 45 49 52 54 53 55 58 59 65 66 63 53 46 44 38 27
195 202 198 193 203 190 196 191 187 218 224 261 198 238 238 269 243 215 208 175 176 175 159 143 118 98 77 60 54 56 56 57 58 62 61 59 58 61 59 52 48 43 35 24
202 232 183 179 197 192 192 222 228 280 317 277 237 229 259 214 187 198 218 209 205 179 166 164 141 125 100 79 63 60 61 61 57 59 63 60 57 57 55 48 47 40 32 20
186 234 181 173 203 233 228 206 207 202 224 236 243 252 251 185 216 210 224 219 196 186 177 163 151 132 105 89 79 71 63 61 59 58 59 57 53 51 51 46 41 32 26 21
211 230 161 162 206 197 199 222 223 222 236 246 259 256 249 257 218 199 214 208 195 194 188 174 160 145 127 104 83 74 70 61 55 57 55 52 48 47 46 48 37 31 24 21
208 220 220 208 222 228 212 214 209 212 196 219 268 260 152 69 268 185 194 193 191 191 188 180 172 167 153 129 104 77 73 73 52 54 58 52 50 42 39 36 35 30 29 24
189 225 202 239 242 219 227 233 220 231 265 238 237 257 299 254 210 219 195 191 194 191 188 183 180 184 169 151 139 107 76 69 55 51 52 51 48 46 37 31 29 31 29 28
189 224 220 229 232 193 212 228 230 232 238 245 238 251 263 222 220 208 206 201 197 196 192 188 189 185 178 168 147 116 87 76 65 63 61 52 45 44 43 34 24 26 30 31
195 230 229 242 254 261 236 225 226 227 232 229 246 240 255 256 252 211 215 205 200 199 195 196 191 184 180 170 158 146 119 97 86 80 72 65 56 42 47 46 31 28 24 29
196 233 226 247 247 242 250 246 242 230 235 242 247 252 254 262 260 249 210 207 209 204 202 198 192 186 181 179 171 157 140 109 99 99 92 73 68 46 40 41 34 38 25 24
210 224 223 247 241 246 247 236 237 243 236 238 241 248 256 254 257 251 225 210 211 207 198 195 193 184 180 176 167 157 147 133 113 103 82 73 70 66 51 36 34 39 31 16
226 218 220 244 248 242 241 241 231 238 238 239 243 252 253 254 265 264 241 222 215 204 192 189 183 178 168 160 157 150 142 134 124 127 93 83 76 60 55 50 39 33 30 12
232 224 230 232 242 246 286 236 224 224 239 240 241 246 254 260 265 269 249 221 217 199 188 175 164 158 158 162 155 151 140 135 133 107 96 84 74 68 54 42 31 30 14 5
211 233 223 219 253 227 245 245 235 233 249 250 241 247 247 247 240 252 203 200 195 178 161 153 154 155 160 159 157 158 148 152 128 127 110 90 81 73 48 23 25 18 5 2
201 215 222 232 247 256 268 329 163 183 239 238 227 231 237 230 226 245 103 111 134 136 144 149 153 157 153 152 152 150 145 137 124 125 129 104 87 77 39 8 23 19 6 356
205 205 214 231 238 248 252 139 204 243 330 340 303 254 248 238 90 138 152 146 144 142 148 153 150 151 150 155 154 154 144 141 132 171 138 122 107 100 66 33 22 19 351 351
240 236 237 228 243 164 161 222 279 313 296 299 282 282 284 159 170 161 159 158 156 153 154 152 146 139 142 151 159 154 150 146 164 157 139 128 117 117 100 77 35 24 20 18
234 238 239 243 247 252 255 245 219 210 237 283 279 294 257 194 165 167 162 161 157 155 151 148 142 142 142 150 153 147 142 156 167 154 152 140 129 115 84 90 60 44 34 15
248 211 218 241 259 270 265 240 251 224 229 253 257 254 230 203 185 169 158 154 153 154 149 148 146 152 153 147 139 143 155 163 163 161 153 135 127 105 83 65 54 56 43 8
201 219 213 237 235 244 301 347 314 135 237 240 225 253 212 172 173 157 149 142 148 150 151 150 153 149 149 143 146 153 156 163 157 148 140 135 129 110 83 55 42 341 359 356